Date String (YYYY-MM-DD hh:mm:ss) UTC,Instrument flags,absolute air pressure of the measurement (hPa),sample flow rate (lpm),inlet stack bypass flow (lpm),air temperature of the measurement (°C),ambient temperature measured by the external sensor (°C),aerosol sample conditioner tube jacket temperature (°C),OPC LED temperature (°C),internal box temperature (°C),relative humidity of the measurement (%),span deviation,mass concentration of particles derived from Lorenz-Mie calculation of OPC scattering (μg/m³),mass concentration of particles derived from Lorenz-Mie calculation of OPC scattering (μg/m³),mass concentration of particles derived from Lorenz-Mie calculation of OPC scattering (μg/m³)
DateTimeUTC,F1_M11,P_M11,Q1_M11,Q2_M11,T1_M11,T2_M11,T3_M11,T4_M11,T5_M11,U1_M11,ZSPAN_M11,X0_M11,X2_M11,X1_M11
2024-04-05 09:00:00,SystemResetWarning,0821.1,5.01,000.00,025.1,024.2,000.0,033.8,026.9,011.5,0000.0,0007.58,0002.72,0001.99
2024-04-05 09:01:00,SystemResetWarning,0821.1,4.99,000.00,025.1,024.2,000.0,033.7,026.9,011.5,0000.0,0006.68,0002.76,0001.99
2024-04-05 09:02:00,SystemResetWarning,0821.1,5.00,000.00,025.1,024.2,000.0,033.7,026.9,011.6,0000.0,0007.11,0002.78,0001.99
2024-04-05 09:03:00,SystemResetWarning,0821.3,4.99,000.00,025.1,024.1,000.0,033.7,026.9,011.7,0000.0,0007.53,0002.86,0001.99
2024-04-05 09:04:00,SystemResetWarning,0821.1,5.00,000.00,025.1,024.1,000.0,033.7,026.9,011.7,0000.0,0007.62,0002.92,0002.00
2024-04-05 09:05:00,SystemResetWarning,0821.2,5.01,000.00,025.1,024.1,000.0,033.7,026.9,011.8,0000.0,0007.59,0002.90,0002.00
2024-04-05 09:06:00,SystemResetWarning,0821.1,5.01,000.00,025.1,024.1,000.0,033.7,026.9,011.9,0000.0,0008.38,0002.93,0001.99
2024-04-05 09:07:00,SystemResetWarning,0821.1,4.99,000.00,025.0,024.1,000.0,033.7,026.9,012.1,0000.0,0008.30,0002.92,0002.00
2024-04-05 09:08:00,SystemResetWarning,0821.1,5.00,000.00,025.0,024.1,000.0,033.7,026.9,012.0,0000.0,0007.74,0002.89,0001.99
2024-04-05 09:09:00,SystemResetWarning,0821.1,5.01,000.00,025.0,024.1,000.0,033.7,026.9,012.0,0000.0,0007.79,0002.93,0001.98
2024-04-05 09:10:00,SystemResetWarning,0821.1,5.00,000.00,025.0,024.1,000.0,033.7,026.9,012.1,0000.0,0007.59,0002.87,0001.98
2024-04-05 09:11:00,SystemResetWarning,0821.2,4.99,000.00,025.0,024.1,000.0,033.7,026.9,012.1,0000.0,0007.63,0002.90,0001.96
2024-04-05 09:12:00,SystemResetWarning,0821.2,5.00,000.00,025.0,024.1,000.0,033.7,026.9,012.1,0000.0,0007.53,0002.82,0001.94
2024-04-05 09:13:00,SystemResetWarning,0821.1,4.99,000.00,025.0,024.1,000.0,033.7,026.9,012.2,0000.0,0007.80,0002.87,0001.94
2024-04-05 09:14:00,SystemResetWarning,0821.1,5.00,000.00,025.0,024.1,000.0,033.7,026.9,012.3,0000.0,0007.52,0002.84,0001.94
2024-04-05 09:15:00,SystemResetWarning,0821.2,5.00,000.00,025.0,024.1,000.0,033.7,026.9,012.4,0000.0,0007.41,0002.78,0001.93
2024-04-05 09:16:00,SystemResetWarning,0821.4,5.00,000.00,025.0,024.1,000.0,033.7,026.8,012.4,0000.0,0007.44,0002.79,0001.93
2024-04-05 09:17:00,SystemResetWarning,0821.0,5.00,000.00,025.0,024.1,000.0,033.7,026.9,012.3,0000.0,0006.56,0002.76,0001.92
2024-04-05 09:18:00,SystemResetWarning,0821.1,5.01,000.00,025.0,024.1,000.0,033.7,026.8,012.3,0000.0,0006.41,0002.72,0001.90
2024-04-05 09:19:00,SystemResetWarning,0821.1,5.00,000.00,025.0,024.1,000.0,033.7,026.8,012.4,0000.0,0006.51,0002.72,0001.89
2024-04-05 09:20:00,SystemResetWarning,0821.1,5.00,000.00,025.0,024.1,000.0,033.6,026.8,012.3,0000.0,0006.24,0002.68,0001.88
2024-04-05 09:21:00,SystemResetWarning,0821.0,5.00,000.00,025.0,024.1,000.0,033.6,026.8,012.3,0000.0,0006.35,0002.72,0001.88
2024-04-05 09:22:00,SystemResetWarning,0821.0,5.01,000.00,025.0,024.1,000.0,033.6,026.8,012.2,0000.0,0007.16,0002.69,0001.88
2024-04-05 09:23:00,SystemResetWarning,0821.0,5.00,000.00,025.0,024.1,000.0,033.6,026.8,012.1,0000.0,0007.73,0002.76,0001.89
2024-04-05 09:24:00,SystemResetWarning,0820.9,5.00,000.00,025.0,024.1,000.0,033.6,026.8,012.2,0000.0,0007.31,0002.67,0001.88
2024-04-05 09:25:00,SystemResetWarning,0821.0,5.01,000.00,025.0,024.1,000.0,033.6,026.8,012.2,0000.0,0006.85,0002.63,0001.89
2024-04-05 09:26:00,SystemResetWarning,0821.1,5.00,000.00,025.0,024.1,000.0,033.6,026.8,012.3,0000.0,0007.18,0002.66,0001.89
2024-04-05 09:27:00,SystemResetWarning,0821.1,5.00,000.00,025.0,024.1,000.0,033.6,026.8,012.2,0000.0,0007.26,0002.68,0001.88
2024-04-05 09:28:00,SystemResetWarning,0821.1,4.99,000.00,025.0,024.1,000.0,033.6,026.8,012.2,0000.0,0007.48,0002.68,0001.88
2024-04-05 09:29:00,SystemResetWarning,0821.1,5.00,000.00,025.0,024.1,000.0,033.6,026.8,012.1,0000.0,0007.72,0002.69,0001.87
2024-04-05 09:30:00,SystemResetWarning,0821.0,5.01,000.00,024.9,024.0,000.0,033.6,026.8,012.1,0000.0,0008.37,0002.69,0001.88
2024-04-05 09:31:00,SystemResetWarning,0821.2,5.01,000.00,024.9,024.0,000.0,033.6,026.8,012.2,0000.0,0008.66,0002.71,0001.89
2024-04-05 09:32:00,SystemResetWarning,0821.0,4.99,000.00,024.9,024.0,000.0,033.6,026.8,012.2,0000.0,0008.81,0002.74,0001.91
2024-04-05 09:33:00,SystemResetWarning,0821.1,4.98,000.00,024.9,024.0,000.0,033.6,026.8,012.4,0000.0,0008.49,0002.81,0001.94
2024-04-05 09:34:00,SystemResetWarning,0821.1,5.00,000.00,024.9,024.0,000.0,033.6,026.7,012.6,0000.0,0008.67,0002.84,0001.96
2024-04-05 09:35:00,SystemResetWarning,0821.3,5.01,000.00,024.9,024.0,000.0,033.6,026.7,012.6,0000.0,0008.70,0002.89,0001.97
2024-04-05 09:36:00,SystemResetWarning,0821.2,5.01,000.00,024.9,024.0,000.0,033.6,026.7,012.5,0000.0,0008.84,0002.98,0001.98
2024-04-05 09:37:00,SystemResetWarning,0821.1,5.00,000.00,024.9,024.0,000.0,033.6,026.7,012.5,0000.0,0009.42,0003.09,0002.00
2024-04-05 09:38:00,SystemResetWarning,0821.0,5.00,000.00,024.9,024.0,000.0,033.6,026.7,012.6,0000.0,0010.21,0003.16,0002.03
2024-04-05 09:39:00,SystemResetWarning,0821.0,4.99,000.00,024.9,024.0,000.0,033.6,026.7,012.6,0000.0,0010.58,0003.20,0002.06
2024-04-05 09:40:00,SystemResetWarning,0821.1,4.99,000.00,024.9,023.9,000.0,033.6,026.7,012.6,0000.0,0010.43,0003.26,0002.09
2024-04-05 09:41:00,SystemResetWarning,0821.1,5.00,000.00,024.9,024.0,000.0,033.5,026.7,012.6,0000.0,0009.75,0003.29,0002.10
2024-04-05 09:42:00,SystemResetWarning,0821.1,5.01,000.00,024.9,024.0,000.0,033.5,026.7,012.7,0000.0,0009.75,0003.34,0002.15
2024-04-05 09:43:00,SystemResetWarning,0821.0,5.00,000.00,024.9,024.0,000.0,033.5,026.7,012.7,0000.0,0011.05,0003.42,0002.15
2024-04-05 09:44:00,SystemResetWarning,0821.2,4.99,000.00,024.9,023.9,000.0,033.5,026.7,012.6,0000.0,0013.38,0003.49,0002.15
2024-04-05 09:45:00,SystemResetWarning,0821.1,4.99,000.00,024.9,024.0,000.0,033.5,026.7,012.7,0000.0,0016.23,0003.62,0002.15
2024-04-05 09:46:00,SystemResetWarning,0821.2,5.01,000.00,024.9,023.9,000.0,033.5,026.7,013.0,0000.0,0017.28,0003.68,0002.15
2024-04-05 09:47:00,SystemResetWarning,0821.1,5.01,000.00,024.8,023.9,000.0,033.5,026.7,013.2,0000.0,0017.88,0003.70,0002.16
2024-04-05 09:48:00,SystemResetWarning,0821.1,5.00,000.00,024.8,023.9,000.0,033.5,026.7,013.2,0000.0,0018.64,0003.67,0002.18
2024-04-05 09:49:00,SystemResetWarning,0821.3,5.00,000.00,024.8,023.9,000.0,033.5,026.7,013.2,0000.0,0018.83,0003.66,0002.18
2024-04-05 09:50:00,SystemResetWarning,0821.1,4.99,000.00,024.8,023.9,000.0,033.5,026.7,013.2,0000.0,0019.37,0003.72,0002.19
2024-04-05 09:51:00,SystemResetWarning,0821.1,4.99,000.00,024.8,023.9,000.0,033.5,026.7,013.3,0000.0,0021.06,0003.77,0002.22
2024-04-05 09:52:00,SystemResetWarning,0821.6,5.01,000.00,024.8,023.9,000.0,033.5,026.7,013.3,0000.0,0021.83,0003.89,0002.26
2024-04-05 09:53:00,SystemResetWarning,0821.1,5.01,000.00,024.8,023.9,000.0,033.5,026.7,013.3,0000.0,0023.34,0003.93,0002.25
2024-04-05 09:54:00,SystemResetWarning,0821.2,5.00,000.00,024.8,024.0,000.0,033.5,026.7,013.5,0000.0,0024.05,0003.91,0002.27
2024-04-05 09:55:00,SystemResetWarning,0821.2,4.99,000.00,024.8,024.0,000.0,033.5,026.7,013.5,0000.0,0023.51,0003.91,0002.28
2024-04-05 09:56:00,SystemResetWarning,0821.2,4.99,000.00,024.8,024.0,000.0,033.5,026.7,013.7,0000.0,0020.75,0003.85,0002.29
2024-04-05 09:57:00,SystemResetWarning,0821.2,5.00,000.00,024.8,024.0,000.0,033.5,026.7,013.8,0000.0,0019.81,0003.85,0002.32
2024-04-05 09:58:00,SystemResetWarning,0821.3,5.01,000.00,024.8,024.0,000.0,033.5,026.7,013.8,0000.0,0019.59,0003.89,0002.34
2024-04-05 09:59:00,SystemResetWarning,0821.3,5.00,000.00,024.8,024.0,000.0,033.4,026.7,013.7,0000.0,0019.15,0003.93,0002.34
